KC3JUG-13 Weather Reports


time (UTC)temp
C
wind
direction
speed
KPH
gust
KPH
rain 1hr
cm
rain 24hr
cm
rain mn
cm
humidity
%
barometer
mb
20260505004140 17 258 3.2 6.4 0.00 0.00 0.00 54 1011.8
20260505002840 17 214 1.6 4.8 0.00 0.00 0.00 53 1011.6
20260505001540 17 263 1.6 3.2 0.00 0.00 0.00 53 1011.5
20260505000240 18 264 1.6 4.8 0.00 0.00 0.00 52 1011.5
20260504234940 18 197 3.2 6.4 0.00 0.00 0.00 50 1011.4
20260504233640 18 196 3.2 6.4 0.00 0.00 0.00 50 1011.3
20260504232340 19 248 3.2 9.7 0.00 0.00 0.00 50 1011.3
20260504231040 19 196 3.2 6.4 0.00 0.00 0.00 48 1011.4
20260504225740 20 244 3.2 4.8 0.00 0.00 0.00 47 1011.4
20260504224440 20 236 3.2 6.4 0.00 0.00 0.00 47 1011.3
20260504223140 20 200 3.2 6.4 0.00 0.00 0.00 45 1011.4
20260504221840 20 213 6.4 14.5 0.00 0.00 0.00 46 1011.4
20260504220540 20 163 4.8 11.3 0.00 0.00 0.00 45 1011.5
20260504215240 20 190 4.8 11.3 0.00 0.00 0.00 44 1011.5
20260504213940 20 180 4.8 9.7 0.00 0.00 0.00 45 1011.6
20260504212640 21 275 1.6 6.4 0.00 0.00 0.00 44 1011.5
20260504211340 21 197 1.6 11.3 0.00 0.00 0.00 44 1011.6
20260504210040 21 194 4.8 9.7 0.00 0.00 0.00 44 1011.4
20260504204740 21 268 4.8 11.3 0.00 0.00 0.00 45 1011.5
20260504203440 21 264 6.4 19.3 0.00 0.00 0.00 46 1011.5
20260504202140 21 197 6.4 12.9 0.00 0.00 0.00 43 1011.6
20260504200840 21 264 4.8 14.5 0.00 0.00 0.00 45 1011.9
20260504195540 21 267 8.0 19.3 0.00 0.00 0.00 43 1012.0
20260504194240 21 227 8.0 17.7 0.00 0.00 0.00 43 1012.0
20260504192940 21 254 4.8 8.0 0.00 0.00 0.00 45 1012.3
20260504191640 21 196 8.0 17.7 0.00 0.00 0.00 43 1012.5
20260504190340 20 242 8.0 17.7 0.00 0.00 0.00 44 1012.6
20260504185040 20 239 8.0 20.9 0.00 0.00 0.00 43 1012.7
20260504183740 20 208 4.8 11.3 0.00 0.00 0.00 47 1012.9
20260504182440 20 265 4.8 11.3 0.00 0.00 0.00 45 1013.0
20260504181140 20 250 4.8 11.3 0.00 0.00 0.00 45 1013.2
20260504175840 19 176 4.8 17.7 0.00 0.00 0.00 44 1013.4
20260504174540 19 206 6.4 11.3 0.00 0.00 0.00 45 1013.7
20260504173240 19 198 4.8 14.5 0.00 0.00 0.00 46 1014.0
20260504171940 18 281 6.4 12.9 0.00 0.00 0.00 47 1014.2
20260504170640 18 228 8.0 14.5 0.00 0.00 0.00 48 1014.2
20260504160140 17 245 3.2 12.9 0.00 0.00 0.00 49 1015.3
20260504150940 16 248 8.0 19.3 0.00 0.00 0.00 47 1015.9
20260504140440 14 186 4.8 6.4 0.00 0.00 0.00 56 1015.9
20260504110241 8 196 6.4 9.7 0.00 0.00 0.00 59 1016.5
20260504081341 10 232 3.2 4.8 0.00 0.00 0.00 48 1016.8
20260504045841 11 261 6.4 11.3 0.00 0.00 0.00 46 1017.0
20260504044541 11 236 6.4 12.9 0.00 0.00 0.00 46 1017.0
20260504043241 11 251 6.4 12.9 0.00 0.00 0.00 46 1016.8
20260504041941 11 246 6.4 11.3 0.00 0.00 0.00 46 1016.7
20260504040641 11 247 6.4 9.7 0.00 0.00 0.00 47 1016.5
20260504035341 11 258 4.8 9.7 0.00 0.00 0.00 47 1016.7
20260504034041 11 252 4.8 14.5 0.00 0.00 0.00 47 1016.6
20260504032741 11 254 3.2 6.4 0.00 0.00 0.00 47 1016.4
20260504031441 11 261 4.8 12.9 0.00 0.00 0.00 47 1016.4
20260504030141 11 248 3.2 8.0 0.00 0.00 0.00 47 1016.3
20260504024841 11 258 4.8 11.3 0.00 0.00 0.00 47 1016.4
20260504023541 11 251 3.2 6.4 0.00 0.00 0.00 47 1016.4
20260504022241 11 238 4.8 11.3 0.00 0.00 0.00 47 1016.5
20260504020941 11 265 4.8 11.3 0.00 0.00 0.00 48 1016.5
20260504015642 10 257 3.2 8.0 0.00 0.00 0.00 51 1016.6
20260504014341 10 270 1.6 4.8 0.00 0.00 0.00 56 1016.4
20260504013042 10 254 1.6 3.2 0.00 0.00 0.00 53 1016.2
20260504011742 10 246 1.6 6.4 0.00 0.00 0.00 53 1016.2
20260504010442 10 247 0.0 1.6 0.00 0.00 0.00 56 1016.1
20260504005142 10 247 1.6 6.4 0.00 0.00 0.00 54 1016.2